IN3APK-3 Weather Reports


time (UTC)temp
C
wind
direction
speed
KPH
gust
KPH
rain 1hr
cm
rain 24hr
cm
rain mn
cm
humidity
%
barometer
mb
20260507122232 17 0.0 0.0 0.00 0.00 0.00 55 1006.6
20260507121141 18 0.0 0.0 0.00 0.00 0.00 53 1006.4
20260507120050 19 0.0 0.0 0.00 0.00 0.00 53 1006.3
20260507114957 17 0.0 0.0 0.00 0.00 0.00 58 1006.5
20260507112812 16 0.0 0.0 0.00 0.00 0.00 58 1006.3
20260507111721 17 0.0 0.0 0.00 0.00 0.00 57 1006.3
20260507110630 18 0.0 0.0 0.00 0.00 0.00 57 1006.4
20260507105538 19 0.0 0.0 0.00 0.00 0.00 57 1006.5
20260507104446 20 0.0 0.0 0.00 0.00 0.00 57 1006.4
20260507102306 20 0.0 0.0 0.00 0.00 0.00 58 1006.5
20260507101209 18 0.0 0.0 0.00 0.00 0.00 60 1006.7
20260507100116 17 0.0 0.0 0.00 0.00 0.00 61 1006.8
20260507095023 16 0.0 0.0 0.00 0.00 0.00 63 1006.9
20260507093930 15 0.0 0.0 0.00 0.00 0.00 65 1006.9
20260507092837 15 0.0 0.0 0.00 0.00 0.00 65 1007.0
20260507091745 15 0.0 0.0 0.00 0.00 0.00 65 1006.9
20260507090653 15 0.0 0.0 0.00 0.00 0.00 65 1007.0
20260507085601 15 0.0 0.0 0.00 0.00 0.00 65 1007.0
20260507084509 15 0.0 0.0 0.00 0.00 0.00 65 1007.1
20260507083416 13 0.0 0.0 0.00 0.00 0.00 67 1007.0
20260507082324 13 0.0 0.0 0.00 0.00 0.00 67 1007.0
20260507081232 13 0.0 0.0 0.00 0.00 0.00 67 1007.0
20260507080139 12 0.0 0.0 0.00 0.00 0.00 68 1007.1
20260507075047 12 0.0 0.0 0.00 0.00 0.00 69 1007.1
20260507073954 11 0.0 0.0 0.00 0.00 0.00 69 1007.0
20260507072902 11 0.0 0.0 0.00 0.00 0.00 70 1006.9
20260507071810 11 0.0 0.0 0.00 0.00 0.00 70 1007.0
20260507070717 11 0.0 0.0 0.00 0.00 0.00 71 1006.9
20260507065625 10 0.0 0.0 0.00 0.00 0.00 71 1006.8
20260507064533 10 0.0 0.0 0.00 0.00 0.00 71 1006.8
20260507063440 10 0.0 0.0 0.00 0.00 0.00 71 1006.7
20260507062348 10 0.0 0.0 0.00 0.00 0.00 72 1006.7
20260507061256 9 0.0 0.0 0.00 0.00 0.00 72 1006.6
20260507060203 8 0.0 0.0 0.00 0.00 0.00 72 1006.7
20260507055110 8 0.0 0.0 0.00 0.00 0.00 73 1006.8
20260507054018 8 0.0 0.0 0.00 0.00 0.00 73 1006.7
20260507052925 8 0.0 0.0 0.00 0.00 0.00 73 1006.7
20260507051833 8 0.0 0.0 0.00 0.00 0.00 73 1006.7
20260507050741 7 0.0 0.0 0.00 0.00 0.00 73 1006.5
20260507045649 7 0.0 0.0 0.00 0.00 0.00 73 1006.4
20260507044557 7 0.0 0.0 0.00 0.00 0.00 73 1006.2
20260507043504 7 0.0 0.0 0.00 0.00 0.00 73 1006.1
20260507042412 7 0.0 0.0 0.00 0.00 0.00 73 1006.0
20260507041320 7 0.0 0.0 0.00 0.00 0.00 73 1005.9
20260507040228 7 0.0 0.0 0.00 0.00 0.00 73 1005.8
20260507035136 7 0.0 0.0 0.00 0.00 0.00 73 1005.7
20260507034044 7 0.0 0.0 0.00 0.00 0.00 73 1005.6
20260507031859 7 0.0 0.0 0.00 0.00 0.00 73 1005.6
20260507030807 7 0.0 0.0 0.00 0.00 0.00 73 1005.7
20260507025715 7 0.0 0.0 0.00 0.00 0.00 74 1005.8
20260507024623 7 0.0 0.0 0.00 0.00 0.00 73 1005.7
20260507023531 7 0.0 0.0 0.00 0.00 0.00 73 1005.7
20260507022439 7 0.0 0.0 0.00 0.00 0.00 73 1005.7
20260507021347 7 0.0 0.0 0.00 0.00 0.00 73 1005.8
20260507020254 7 0.0 0.0 0.00 0.00 0.00 73 1005.8
20260507015202 7 0.0 0.0 0.00 0.00 0.00 73 1005.6
20260507014110 7 0.0 0.0 0.00 0.00 0.00 73 1005.6
20260507013018 7 0.0 0.0 0.00 0.00 0.00 73 1005.6
20260507011926 7 0.0 0.0 0.00 0.00 0.00 73 1005.7
20260507010834 7 0.0 0.0 0.00 0.00 0.00 73 1005.7
20260507005741 7 0.0 0.0 0.00 0.00 0.00 73 1005.8
20260507004649 7 0.0 0.0 0.00 0.00 0.00 73 1005.7
20260507003557 7 0.0 0.0 0.00 0.00 0.00 73 1005.8
20260507001412 7 0.0 0.0 0.00 0.00 0.00 73 1005.7
20260507000321 7 0.0 0.0 0.00 0.00 0.00 73 1005.6
20260506235228 7 0.0 0.0 0.00 0.00 0.00 73 1005.6
20260506234135 7 0.0 0.0 0.00 0.00 0.00 73 1005.6
20260506233043 7 0.0 0.0 0.00 0.00 0.00 74 1005.6
20260506231951 7 0.0 0.0 0.00 0.00 0.00 74 1005.7
20260506230859 7 0.0 0.0 0.00 0.00 0.00 74 1005.7
20260506225807 7 0.0 0.0 0.00 0.00 0.00 74 1005.6
20260506224714 6 0.0 0.0 0.00 0.00 0.00 74 1005.7
20260506223622 6 0.0 0.0 0.00 0.00 0.00 74 1005.7
20260506222530 7 0.0 0.0 0.00 0.00 0.00 74 1005.9
20260506221438 7 0.0 0.0 0.00 0.00 0.00 74 1005.7
20260506215254 8 0.0 0.0 0.00 0.00 0.00 73 1005.6
20260506214203 8 0.0 0.0 0.00 0.00 0.00 72 1005.5
20260506213110 8 0.0 0.0 0.00 0.00 0.00 72 1005.7
20260506212019 8 0.0 0.0 0.00 0.00 0.00 72 1005.6
20260506205834 8 0.0 0.0 0.00 0.00 0.00 72 1005.6
20260506204742 8 0.0 0.0 0.00 0.00 0.00 72 1005.5
20260506201505 9 0.0 0.0 0.00 0.00 0.00 73 1005.3
20260506200412 9 0.0 0.0 0.00 0.00 0.00 73 1005.2
20260506195321 9 0.0 0.0 0.00 0.00 0.00 73 1004.8
20260506194228 9 0.0 0.0 0.00 0.00 0.00 73 1004.7
20260506193136 9 0.0 0.0 0.00 0.00 0.00 73 1004.4
20260506192044 9 0.0 0.0 0.00 0.00 0.00 73 1004.2
20260506190952 9 0.0 0.0 0.00 0.00 0.00 73 1004.1
20260506185900 9 0.0 0.0 0.00 0.00 0.00 73 1004.0
20260506184808 9 0.0 0.0 0.00 0.00 0.00 73 1003.8
20260506183715 10 0.0 0.0 0.00 0.00 0.00 73 1003.8
20260506182623 10 0.0 0.0 0.00 0.00 0.00 73 1003.7
20260506181531 10 0.0 0.0 0.00 0.00 0.00 72 1003.7
20260506180439 10 0.0 0.0 0.00 0.00 0.00 72 1003.4
20260506175347 11 0.0 0.0 0.00 0.00 0.00 72 1003.5
20260506174255 11 0.0 0.0 0.00 0.00 0.00 72 1003.4
20260506173204 11 0.0 0.0 0.00 0.00 0.00 71 1003.2
20260506172112 12 0.0 0.0 0.00 0.00 0.00 71 1003.0
20260506171020 12 0.0 0.0 0.00 0.00 0.00 70 1003.1
20260506165928 12 0.0 0.0 0.00 0.00 0.00 71 1002.8
20260506163744 12 0.0 0.0 0.00 0.00 0.00 71 1003.0
20260506162652 12 0.0 0.0 0.00 0.00 0.00 71 1002.9
20260506161600 13 0.0 0.0 0.00 0.00 0.00 71 1002.8
20260506160508 13 0.0 0.0 0.00 0.00 0.00 71 1002.6
20260506155416 13 0.0 0.0 0.00 0.00 0.00 71 1002.7
20260506154325 15 0.0 0.0 0.00 0.00 0.00 68 1002.8
20260506153234 16 0.0 0.0 0.00 0.00 0.00 67 1002.8
20260506152140 15 0.0 0.0 0.00 0.00 0.00 70 1002.8
20260506151049 16 0.0 0.0 0.00 0.00 0.00 66 1002.9
20260506145956 15 0.0 0.0 0.00 0.00 0.00 71 1002.9
20260506144901 12 0.0 0.0 0.00 0.00 0.00 75 1003.1
20260506143808 10 0.0 0.0 0.00 0.00 0.00 75 1003.1
20260506142716 11 0.0 0.0 0.00 0.00 0.00 74 1003.2
20260506141624 11 0.0 0.0 0.00 0.00 0.00 74 1003.1
20260506135440 11 0.0 0.0 0.00 0.00 0.00 73 1003.4
20260506134348 11 0.0 0.0 0.00 0.00 0.00 73 1003.4
20260506133255 11 0.0 0.0 0.00 0.00 0.00 74 1003.6
20260506132203 11 0.0 0.0 0.00 0.00 0.00 73 1003.5
20260506131111 11 0.0 0.0 0.00 0.00 0.00 73 1003.1
20260506130019 10 0.0 0.0 0.00 0.00 0.00 74 1003.5
20260506124926 10 0.0 0.0 0.00 0.00 0.00 73 1003.8
20260506123834 11 0.0 0.0 0.00 0.00 0.00 72 1003.6